NOAA 17 DEB, 48724

Orbit data source: Space-Track

NOAA 17 DEB, 48724 is space debris in SSO originally from a launch on Mon, 24 Jun 2002 UTC launched from the Air Force Western Test Range (AFWTR). Debris objects in space refer to the collection of defunct objects orbiting the Earth. Examples of debris include non-operational satellites, rocket bodies, and fragments generated from explosions, collisions, or faulty payload assembly.

Loading next visibility...
Identifier
48724, 2002-032BH
Orbit
SSO
Country
Flag of USUS
Related business
Manufacturer
Unknown
Mission
Spacecraft
Bus & Motor
Unknown
Mass
Unknown
Launch date (UTC)
2002-06-24 (24 years ago)
Launch vehicle
Unknown
Launch site
Air Force Western Test Range (AFWTR)
Object type
Payload
Rocket body
Debris
Shape & HBR
Unknown shape, 0.1 m
Radar Cross Section
Medium (>0.1 m² and <1 m²)

Expand to show TLE details & history
Last TLE update: 3 days ago

TLE from 3 days ago
0 NOAA 17 DEB
1 48724U 02032BH  26170.37813272  .00008805  00000-0  12669-2 0  9998
2 48724  98.7388 214.1527 0020751 289.9775  69.9198 14.76500113278135
Epoch: 2026-06-19T09:04Z
TLE epoch observation values (Epoch: 2026-06-19T09:04:30.667Z)
Latitude
0.00005°
Longitude
170.41694°
Altitude
638.409 km
Speed
7.542 km/s
True Right ascension
14h 16m 36s
True Declination
0° 00' 00"
Sunlit
Object was in full shadow at epoch
Visualization orbit readout
Latitude
Unknown
Longitude
Unknown
Altitude
Unknown
Speed
Unknown
Apparent Right ascension
Unknown
Apparent Declination
Unknown
Sunlit
N/A
Visualization observer readout
Local Sidereal Time
21:46:54
Azimuth
Unknown
Elevation
Unknown
Doppler factor
Unknown
Orbital elements
Apogee altitude
652.036 km
Perigee altitude
622.92 km
Semi-major axis
7,015.615 km
Eccentricity
0.00208
Inclination
98.7388°
RAAN
214.1527°
Arg. of periapsis
289.9775°
True anomaly
70.14333°
Mean anomaly
69.9198°
Eccentric anomaly
70.03155°
Mean motion
3.69355 °/min
Orbital period
97.47 mins
BSTAR
0.0012669
Loading maneuver chart data...
Computing Atmospheric mass density...

Documentation

Showing up to 5 results
|